Location: *
(42.5271°S, 179.1988°W)
Time: 01:09:57
(UTC+00:00)

Daily predictions for brighter satellites

Satellite Brightness Start Highest point End
(mag) Time Altitude Azimuth Time Altitude Azimuth Time Altitude Azimuth
CENTAUR R/B 3.5 06:08:23 10° NW 06:16:24 62° SW 06:23:19 10° SSE
Cosmos 1943 3.4 06:11:44 10° SSW 06:17:18 54° ESE 06:22:49 10° NE
STARLINK-1033 4.0 06:15:27 10° WNW 06:19:38 67° SSW 06:23:52 10° SE
CZ-2C R/B 3.7 06:17:30 10° ENE 06:21:50 26° ESE 06:26:16 10° S
FALCON 9 DEB 3.8 06:18:51 10° WSW 06:22:23 57° NW 06:25:52 10° NE
CZ-4 R/B 2.8 06:20:01 10° SE 06:23:08 20° E 06:26:10 10° NE
Timation 1 Rocket 4.4 06:17:15 10° NNW 06:23:13 81° ENE 06:29:16 10° SSE
STARLINK-1038 4.4 06:22:35 10° NNW 06:26:23 34° NE 06:30:13 10° ESE
STARLINK-1024 4.2 06:25:29 10° WNW 06:29:37 57° SSW 06:33:47 10° SE
USA 267 4.5 06:24:15 10° ESE 06:29:43 29° SSE 06:35:13 10° SW
STARLINK-29 4.2 06:28:06 10° WSW 06:31:12 41° NW 06:34:16 10° NNE
STARLINK-1046 4.3 06:27:27 10° NNW 06:31:19 37° NE 06:35:14 10° ESE
Cosmos 883 Rocket 4.5 06:25:41 10° S 06:31:51 63° E 06:37:56 10° NNE
BREEZE-M DEB (TANK) 3.5 06:29:40 10° WSW 06:32:09 48° NNW 06:37:47 10° NE
Cosmos 1818 3.9 06:28:31 10° SW 06:33:55 71° WNW 06:39:18 10° NNE
Okean-O 3.0 06:30:11 10° SSE 06:34:29 41° E 06:38:42 10° N
Cosmos 1470 3.2 06:30:48 10° S 06:34:34 40° ESE 06:38:16 10° NNE
CZ-2C R/B 3.9 06:30:12 10° NE 06:34:35 49° ESE 06:38:58 10° S
STARLINK-1035 4.4 06:30:29 10° WNW 06:34:36 53° SSW 06:38:45 10° SE
STARLINK-1039 4.1 06:32:20 10° NNW 06:36:16 41° NE 06:40:15 10° ESE
Cosmos 1758 3.7 06:35:07 10° S 06:39:02 42° ESE 06:42:54 10° NNE
STARLINK-1032 4.5 06:35:31 10° WNW 06:39:36 49° SSW 06:43:43 10° SE
Cosmos 2266 Rocket 4.0 06:34:40 10° N 06:40:49 89° ENE 06:46:59 10° S
STARLINK-1045 4.0 06:37:14 10° NNW 06:41:14 45° NE 06:45:09 11° ESE
SL-24 R/B 4.3 06:38:28 10° NE 06:41:57 38° ESE 06:45:44 10° S
Cosmos 1867 3.5 06:37:32 10° NNW 06:42:56 81° ENE 06:48:23 10° SE
IRS-1C Rocket 4.1 06:38:26 10° SSE 06:43:49 86° ENE 06:49:08 10° NNW
Cosmos 1939 Rocket 3.9 06:40:48 10° SE 06:44:24 27° E 06:47:56 10° NNE
Lacrosse 5 rocket 3.9 06:43:04 10° SSW 06:44:45 12° S 06:46:23 10° SSE
Meteor 2-19 Rocket 4.4 06:38:57 10° N 06:45:07 79° E 06:51:20 10° S
STARLINK-1050 3.9 06:42:10 10° NNW 06:46:14 51° NE 06:49:59 12° ESE
Aureole 3 3.7 06:46:16 10° SSE 06:49:23 28° ESE 06:51:25 15° NE
Cosmos 1242 Rocket 3.9 06:47:48 10° NE 06:50:26 19° E 06:53:07 10° SE
STARLINK-1055 3.8 06:47:05 10° NW 06:51:11 56° NE 06:54:45 13° ESE
Cosmos 1603 4.3 06:49:08 10° SSW 06:54:51 62° WNW 07:00:30 10° N
Cosmos 1536 Rocket 3.5 06:51:10 10° N 06:55:30 70° E 06:59:54 10° SSE
STARLINK-1022 3.7 06:52:01 10° NW 06:56:09 61° NE 06:59:33 15° ESE
YAOGAN 1 3.1 06:54:13 10° SSE 06:58:19 37° E 07:02:21 10° NNE
ATLAS 3B R/B 3.6 06:53:40 10° NW 07:00:52 54° SW 07:08:12 10° SSE
STARLINK-1042 3.6 06:56:58 10° NW 07:01:07 67° NE 07:04:20 17° ESE
Cosmos 1455 Rocket 4.4 06:57:05 10° SSW 07:01:19 43° W 07:05:27 10° NNW
Cosmos 2315 Rocket 4.0 06:59:08 10° S 07:05:27 89° W 07:11:43 10° N
Cosmos 1726 3.0 07:02:31 10° SSE 07:05:51 29° ESE 07:06:40 26° E
STARLINK-1056 3.6 07:01:55 10° NW 07:06:05 73° NE 07:09:06 18° ESE
Cosmos 1140 Rocket 4.3 07:01:28 10° S 07:06:12 32° ESE 07:08:32 22° ENE
CZ-2D R/B 3.6 07:03:39 10° SSE 07:07:27 43° E 07:11:11 10° N
Cosmos 1707 2.7 07:03:48 10° N 07:07:45 78° E 07:11:45 10° S
FengYun 1-2 T 4.3 07:02:09 10° SSE 07:07:53 87° ENE 07:13:31 10° NNW
STARLINK-1054 3.5 07:06:52 10° NW 07:11:04 80° NE 07:13:53 20° ESE
Cosmos 1025 Rocket 3.3 07:09:00 10° NNW 07:13:17 69° W 07:17:38 10° S
Cosmos 407 Rocket 3.8 07:08:20 10° S 07:13:36 49° ESE 07:16:57 21° NE
Cosmos 1244 Rocket 4.4 07:07:42 10° N 07:13:54 65° E 07:20:05 10° SSE
Cosmos 1844 Rocket 3.0 07:10:20 10° N 07:15:34 41° ENE 07:20:50 10° SE
STARLINK-1062 3.6 07:11:50 10° NW 07:16:01 86° NE 07:18:40 22° SE
Cosmos 1809 Rocket 4.4 07:10:58 10° N 07:17:04 64° E 07:23:15 10° SSE
STARLINK-1053 3.6 07:16:49 10° NW 07:21:00 87° SW 07:23:27 25° SE
Cosmos 1953 2.2 07:17:29 10° S 07:21:36 69° E 07:24:43 16° NNE
Cosmos 1271 Rocket 2.9 07:18:27 10° NNE 07:22:05 44° E 07:25:49 10° SSE
MOS 1 Rocket 3.5 07:18:47 10° NNE 07:24:10 77° ESE 07:29:23 10° S
SL-24 R/B - RUBIN 2 4.3 07:21:22 10° SW 07:25:28 50° WNW 07:29:11 13° NNE
STARLINK-1061 3.7 07:21:46 10° NW 07:25:57 81° SW 07:28:12 27° SE
Cosmos 1745 Rocket 4.3 07:20:50 10° NNE 07:26:32 41° E 07:32:18 10° SSE
STARLINK-43 3.7 07:23:51 10° SW 07:27:33 50° SSE 07:28:10 44° ESE
Nadezhda 1 Rocket 4.3 07:23:48 10° S 07:29:46 43° ESE 07:32:29 29° NE
STARLINK-1067 3.7 07:26:45 10° WNW 07:30:57 75° SW 07:33:00 29° SE
Cosmos 1726 Rocket 4.2 07:28:40 10° S 07:32:16 34° ESE 07:32:16 34° ESE
Cosmos 2263 Rocket 3.9 07:27:58 10° WNW 07:33:00 33° SW 07:38:03 10° S
Cosmos 1371 Rocket 3.8 07:29:08 10° NNW 07:34:20 77° ENE 07:39:35 10° SSE
STARLINK-1058 3.9 07:31:46 10° WNW 07:35:57 69° SSW 07:37:47 32° SE
USA 215 3.2 07:33:04 10° SE 07:39:45 82° NE 07:46:21 10° NW
Cosmos 1624 Rocket 3.9 07:35:03 10° NNW 07:40:23 76° ENE 07:45:47 10° SSE
Cosmos 614 Rocket 4.0 07:35:34 10° SSW 07:40:48 83° WNW 07:44:10 22° NNE
STARLINK-1043 4.0 07:36:45 10° WNW 07:40:55 64° SW 07:42:34 34° SE
CSL-04 Debris 4.1 07:36:42 10° SSE 07:42:17 79° ENE 07:47:48 10° N
STARLINK-1065 4.0 07:38:57 10° WNW 07:43:07 62° SSW 07:44:40 36° SSE
BREEZE-M DEB (TANK) 2.4 07:43:36 10° NW 07:46:18 70° NE 07:47:15 51° E
Meteor 2-5 Rocket 3.9 07:45:51 44° ENE 07:46:31 47° E 07:51:55 10° SSE
SL-08 R/B 4.4 07:40:56 10° N 07:47:16 83° E 07:53:44 10° S
STARLINK-80 4.5 07:43:59 10° SW 07:47:22 34° SSE 07:47:22 34° SSE
STARLINK-1063 4.2 07:46:46 10° WNW 07:50:54 55° SSW 07:52:07 39° SSE
ATLAS 5 CENTAUR R/B 3.7 07:49:40 10° SW 07:53:59 27° WNW 07:57:38 11° N
STARLINK-1064 4.3 07:51:48 10° WNW 07:55:54 51° SSW 07:56:55 41° SSE
Cosmos 1833 Rocket 4.4 07:52:46 10° S 07:55:57 18° SE 07:55:57 18° SE
Cosmos 1844 3.6 07:52:25 10° NNW 07:58:13 75° ENE 08:04:04 10° SSE
CZ-4 R/B 3.1 07:54:23 10° S 07:58:16 35° WSW 08:02:01 10° NW
Cosmos 1606 Rocket 3.4 07:54:18 10° S 07:58:43 87° ESE 07:58:48 86° NE
STARLINK-1041 4.5 07:56:48 10° WNW 08:00:53 48° SSW 08:01:40 42° S
CZ-2C R/B 3.7 07:56:43 10° N 08:01:49 45° W 08:07:05 10° SSW
Cosmos 2056 Rocket 3.9 08:04:53 10° NNW 08:10:00 62° WSW 08:15:15 10° SSE
USA 267 3.4 08:10:30 49° ESE 08:11:53 57° SSE 08:18:21 10° SW
Ariane Rocket 4.2 08:10:15 10° SSE 08:12:55 31° SSE 08:12:55 31° SSE
CSL-04 Rocket 4.4 08:14:03 10° S 08:19:29 52° WSW 08:24:48 10° NW
Cosmos 1709 Rocket 4.4 08:25:42 46° SE 08:25:42 46° SE 08:30:09 10° SSE
Lacrosse 5 rocket 3.9 08:23:20 10° SSW 08:24:42 13° S 08:24:42 13° S
Cosmos 2228 4.0 08:24:10 10° SSW 08:27:55 44° WSW 08:27:55 44° WSW
Gbstr 26 Del rocket 4.2 08:23:34 10° WNW 08:30:18 82° SSW 08:32:35 50° SE
H-2A R/B 3.1 08:31:21 10° SSE 08:34:43 39° SSE 08:34:43 39° SSE
Cosmos 1844 Rocket 4.4 08:54:38 10° WNW 08:59:34 31° SW 09:04:32 10° S
COSMOS 2406 4.2 08:54:40 10° SSW 08:58:19 41° SSW 08:58:19 41° SSW
Cosmos 2082 Rocket 4.1 09:03:52 10° S 09:06:06 22° S 09:06:06 22° S
USA 215 4.4 09:20:24 32° SSE 09:22:22 39° SSW 09:28:23 10° W
